Qaqortoq

KL  EN  DA
ASIAQ
Weather Now GREENLAND SURVEY
Updated [WGT/WGST] Temperature [°C] Wind [m/s] Air pressure [hPa] Relative humidity [%] Precipitation [mm]
Present Wind chill Speed Max
17.01 13:00-2,5-6,93,4 ⇐4,71016850,0
17.01 12:00-2,7-6,22,5 ⇐4,11016930,0
17.01 11:00-2,8-6,22,4 ⇐5,01016930,1
17.01 10:00-2,7-7,03,3 ⇐7,01015930,0
17.01 09:00-3,0-8,85,2 ⇐6,91014910,2
17.01 08:00-3,0-8,95,3 ⇐9,51014910,1
17.01 07:00-3,7-10,26,1 ⇖9,31014910,3
17.01 06:00-3,7-10,56,7 ⇐8,61013870,1
17.01 05:00-3,9-10,25,6 ⇖7,21013860,1
17.01 04:00-3,5-9,24,8 ⇖7,11013800,3
17.01 03:00-3,6-8,53,7 ⇖6,91014750,0
17.01 02:00-3,4-9,14,9 ⇖6,51013680,0
17.01 01:00-3,7-7,52,6 ⇐4,61013720,0
17.01 00:00-3,8-8,43,4 ⇖6,81013730,0
16.01 23:00-4,1-9,54,2 ⇖6,31014730,0
16.01 22:00-4,3-8,52,8 ⇐5,71014760,0
16.01 21:00-4,8-9,93,7 ⇐5,81014780,0
16.01 20:00-5,0-9,12,6 ⇐4,5101479n/a
16.01 19:00-5,1-9,32,7 ⇐4,21014800,0
16.01 18:00-5,40,01,1 ⇓3,11014810,0
16.01 17:00-4,6-7,21,6 ⇐2,91013800,0
16.01 16:00-4,50,00,7 ⇓4,51013790,0
16.01 15:00-4,80,01,2 ⇓3,81013800,0
16.01 14:00-4,4-6,61,4 ⇓4,01013770,0
16.01 13:00-4,5-7,11,6 ⇓3,21013780,0
Position: (60.716667,-46.033333)

[Back]